Regional Weather Roundup
Issued by NWS

Home | Current Version | Previous Version | Text Only | Print | Product List | Glossary Off
Versions: 1 2 3 4 5 6 7 8 9 10 11 12 13 14 15 16 17 18 19 20 21 22 23 24 25 26 27 28 29 30 31 32 33 34 35 36 37 38 39 40 41 42 43 44 45 46 47 48 49 50

000
ASUS45 KABQ 250701
RWRNM
NEW MEXICO REGIONAL WEATHER ROUNDUP
NATIONAL WEATHER SERVICE ALBUQUERQUE NM
100 AM MDT MON JUL 25 2016

NOTE: "FAIR" MEANS FEW OR NO CLOUDS BELOW 12,000 FEET AGL WITH NO
       SIGNIFICANT WEATHER OR OBSTRUCTIONS TO VISION.

      THIS PRODUCT IS RELEASED AS TWO VERSIONS.  ONE VERSION NEAR
      THE TOP OF THE HOUR CONTAINING PRELIMINARY DATA FROM ALBUQUERQUE
      AND OTHER STATIONS.  A FINAL VERSION WITH ADDITIONAL DATA IS
      ISSUED ABOUT 10 MINUTES AFTER THE HOUR.

NMZ501-503-504-510>518-250800-
NORTHWEST PLATEAU/NORTHCENTRAL MOUNTAINS

CITY           SKY/WX    TMP DP  RH WIND       PRES   REMARKS
FARMINGTON     FAIR      79  46  31 SE9       30.19F
LOS ALAMOS     FAIR      69  46  44 CALM      30.36R
SANTA FE       FAIR      70  52  52 SE15      30.29R
TAOS           FAIR      64  37  36 N5        30.37R
ANGEL FIRE     FAIR      50  47  90 CALM      30.47S

$$
NMZ402-403-502-505>509-250800-
WESTCENTRAL MOUNTAINS/SOUTHWEST MOUNTAINS

CITY           SKY/WX    TMP DP  RH WIND       PRES   REMARKS
GALLUP         FAIR      68  48  48 CALM      30.30F
GRANTS         FAIR      63  51  64 S3        30.34S
SILVER CITY    FAIR      72  55  56 N12       30.23F

$$
NMZ407-409-411-412-250800-
SOUTHERN DESERTS

CITY           SKY/WX    TMP DP  RH WIND       PRES   REMARKS
LORDSBURG      FAIR      70  55  60 SW16      30.16S
DEMING         CLOUDY    75  60  59 N9        30.18R
LAS CRUCES     CLOUDY    81  52  36 NW14      30.12S
ALAMOGORDO     FAIR      75  55  50 E7        30.08S
T OR C         FAIR      79  53  40 NE10      30.17S

$$
NMZ519>523-250800-
CENTRAL VALLEYS/CENTRAL HIGHLANDS

CITY           SKY/WX    TMP DP  RH WIND       PRES   REMARKS
ALBUQUERQUE    MOCLDY    72  58  61 SE9       30.22F
MORIARTY ARPT  MOCLDY    65  55  70 CALM      30.33R
CLINES CORNERS LGT RAIN  64  53  67 CALM      30.38S
BELEN          MOCLDY    73  54  50 E13       30.21F
SOCORRO        FAIR      76  52  42 NW5       30.19S

$$
NMZ524>526-539-540-250800-
SOUTHCENTRAL MOUNTAINS

CITY           SKY/WX    TMP DP  RH WIND       PRES   REMARKS
RUIDOSO          N/A     66  48  52 SE5       30.37S

$$
NMZ527>531-250800-
NORTHEAST HIGHLANDS/NORTHEAST PLAINS

CITY           SKY/WX    TMP DP  RH WIND       PRES   REMARKS
LAS VEGAS      FAIR      63  52  67 N3        30.35F
RATON          FAIR      60  55  83 N9        30.30F
CLAYTON        FAIR      66  64  93 N8        30.21R

$$
NMZ532>537-250800-
EASTCENTRAL PLAINS

CITY           SKY/WX    TMP DP  RH WIND       PRES   REMARKS
TUCUMCARI      FAIR      71  57  61 E3        30.15R
CANNON AFB     FAIR      72  57  59 NE9       30.15F
CLOVIS AIRPORT FAIR      72  55  56 N9        30.16S

$$
NMZ028-029-538-250800-
SOUTHEAST PLAINS

CITY           SKY/WX    TMP DP  RH WIND       PRES   REMARKS
ROSWELL        FAIR      81  54  39 NW10      30.09R
ARTESIA        FAIR      84  54  34 CALM      30.07R
CARLSBAD       FAIR      81  53  37 S7        30.02S
HOBBS          FAIR      79  54  41 E9        30.09S


$$



USA.gov is the U.S. government's official web portal to all federal, state and local government web resources and services.